1507129200.9,9844,13.88,73780.8,-0.69,-23.95,-26.55,0,*57
1507129202.14,9845,13.88,73784.8,-0.67,-23.85,-26.49,0,*54
1507129203.39,9846,13.88,73780.8,-0.67,-23.85,-26.61,0,*5D
1507129204.61,9847,13.88,73792.5,-0.69,-23.99,-26.65,0,*5B
1507129205.86,9848,13.88,73806.5,-0.69,-23.99,-26.55,0,*57
1507129207.12,9849,13.88,73798.5,-0.67,-23.69,-26.33,0,*57
1507129208.36,9850,13.88,73786.0,-0.69,-23.69,-26.17,0,*57
1507129209.55,9851,13.88,73778.8,-0.69,-23.39,-25.87,0,*59
1507129210.77,9852,13.88,73786.5,-0.69,-23.29,-25.87,0,*5B
1507129212.02,9853,13.88,73790.5,-0.67,-23.53,-26.07,0,*52
1507129213.26,9854,13.88,73794.0,-0.69,-23.69,-26.13,0,*57
1507129214.51,9855,13.88,73800.0,-0.67,-23.79,-26.33,0,*5B
1507129215.76,9856,13.88,73778.3,-0.67,-23.49,-25.91,0,*50
1507129217.01,9857,13.88,73794.0,-0.67,-23.23,-25.61,0,*52
1507129218.26,9858,13.88,73792.5,-0.67,-23.33,-25.65,0,*58
1507129219.48,9859,13.88,73800.0,-0.67,-23.39,-25.65,0,*53
1507129220.73,9860,13.88,73802.3,-0.69,-23.29,-25.55,0,*55
1507129221.96,9861,13.88,73786.0,-0.67,-23.09,-25.35,0,*5E
1507129223.21,9862,13.88,73788.8,-0.67,-23.09,-25.45,0,*5A
1507129224.49,9863,13.88,73788.0,-0.63,-23.29,-25.55,0,*5C
1507129225.69,9864,13.88,73782.0,-0.61,-23.43,-25.61,0,*52
1507129226.95,9865,13.88,73780.3,-0.61,-23.49,-25.71,0,*58
1507129228.2,9866,13.88,73784.0,-0.63,-23.59,-25.75,0,*5C
1507129229.43,9867,13.88,73794.3,-0.61,-23.75,-25.75,0,*51
1507129230.62,9868,13.81,73782.8,-0.61,-23.79,-25.87,0,*5F
1507129231.85,9869,13.88,73786.5,-0.63,-23.79,-25.91,0,*5B
1507129233.04,9870,13.88,73776.8,-0.61,-23.79,-25.91,0,*51
1507129234.23,9871,13.88,73766.0,-0.61,-23.89,-25.91,0,*5F
1507129235.46,9872,13.88,73764.0,-0.61,-23.95,-26.03,0,*59
1507129236.68,9873,13.88,73760.3,-0.61,-23.95,-26.07,0,*5C
1507129237.9,9874,13.88,73782.3,-0.61,-24.11,-26.23,0,*56
1507129239.12,9875,13.88,73778.5,-0.61,-24.15,-26.23,0,*53
1507129240.34,9876,13.88,73778.3,-0.61,-24.15,-26.39,0,*5B
1507129241.56,9877,13.88,73776.8,-0.61,-23.99,-25.91,0,*58
1507129242.79,9878,13.88,73786.5,-0.61,-24.41,-26.39,0,*54
1507129244.07,9879,13.88,73792.3,-0.63,-24.41,-26.29,0,*56
1507129245.35,9880,13.88,73782.3,-0.63,-24.41,-26.29,0,*50
1507129246.58,9881,13.88,73782.3,-0.61,-24.31,-26.29,0,*54
1507129247.82,9882,13.88,73776.5,-0.63,-24.47,-26.39,0,*55
1507129249.1,9883,13.88,73776.5,-0.63,-24.41,-26.29,0,*53
1507129250.35,9884,13.81,73790.3,-0.67,-24.35,-26.29,0,*53
1507129251.61,9885,13.88,73786.0,-0.63,-24.25,-26.07,0,*5B
1507129252.83,9886,13.88,73768.3,-0.61,-24.41,-26.07,0,*58
1507129254.09,9887,13.88,73752.3,-0.67,-24.35,-26.13,0,*59
1507129255.34,9888,13.88,73762.3,-0.63,-24.47,-26.29,0,*5E
1507129256.57,9889,13.88,73768.0,-0.63,-24.57,-26.07,0,*52
1507129257.82,9890,13.88,73794.5,-0.67,-24.61,-26.13,0,*5E
1507129259.05,9891,13.88,73788.3,-0.67,-24.47,-26.07,0,*5E
1507129260.31,9892,13.88,73776.5,-0.67,-23.99,-25.61,0,*5A
1507129261.56,9893,13.88,73770.3,-0.67,-24.21,-25.65,0,*5B
1507129262.84,9894,13.88,73784.8,-0.67,-24.83,-26.29,0,*5F
1507129264.09,9895,13.88,73784.3,-0.67,-24.83,-26.45,0,*54
1507129265.3,9896,13.88,73792.8,-0.67,-24.93,-26.45,0,*56
1507129266.55,9897,13.81,73792.5,-0.67,-24.77,-26.29,0,*57
1507129267.79,9898,13.88,73790.3,-0.67,-24.35,-25.65,0,*55
1507129269.04,9899,13.88,73784.0,-0.67,-24.15,-25.49,0,*58
1507129270.31,9900,13.88,73784.5,-0.63,-23.99,-25.29,0,*58
1507129271.59,9901,13.88,73786.0,-0.67,-24.21,-25.45,0,*53
1507129272.85,9902,13.81,73782.8,-0.67,-24.21,-25.49,0,*5C
1507129274.1,9903,13.88,73778.0,-0.67,-24.15,-25.35,0,*51
1507129275.34,9904,13.88,73782.0,-0.63,-24.15,-25.39,0,*5E
1507129276.62,9905,13.88,73784.8,-0.63,-24.15,-25.29,0,*5E
1507129277.86,9906,13.88,73784.5,-0.63,-24.15,-25.23,0,*57
1507129279.14,9907,13.88,73792.3,-0.63,-24.41,-25.45,0,*57
1507129280.37,9908,13.88,73788.0,-0.63,-24.31,-25.39,0,*54
1507129281.6,9909,13.88,73792.8,-0.63,-24.31,-25.39,0,*55
1507129282.88,9910,13.81,73792.3,-0.63,-24.41,-25.29,0,*5B
1507129284.13,9911,13.88,73792.0,-0.63,-24.15,-25.09,0,*59
1507129285.39,9912,13.88,73790.3,-0.63,-24.25,-25.09,0,*59
1507129286.62,9913,13.88,73796.3,-0.61,-24.41,-25.39,0,*5B
1507129287.87,9914,13.88,73790.3,-0.59,-24.25,-25.23,0,*5E
1507129289.1,9915,13.88,73788.8,-0.61,-24.25,-25.13,0,*57
1507129290.33,9916,13.88,73796.5,-0.61,-24.41,-25.13,0,*56
1507129291.56,9917,13.88,73792.0,-0.61,-24.41,-25.09,0,*5C
1507129292.76,9918,13.88,73798.0,-0.61,-24.57,-25.23,0,*5C
1507129293.95,9919,13.88,73792.5,-0.61,-24.61,-25.23,0,*58
1507129295.15,9920,13.81,73776.0,-0.61,-24.77,-25.23,0,*55
1507129296.35,9921,13.88,73776.0,-0.61,-24.61,-25.13,0,*50
1507129297.58,9922,13.88,73776.3,-0.61,-24.71,-25.23,0,*51
1507129298.83,9923,13.88,73784.8,-0.59,-24.83,-25.23,0,*56
1507129300.09,9924,13.81,73782.0,-0.59,-24.83,-25.23,0,*51
1507129301.31,9925,13.88,73780.0,-0.61,-24.47,-25.03,0,*51
1507129302.57,9926,13.88,73784.5,-0.59,-24.35,-24.71,0,*58
1507129303.85,9927,13.88,73784.5,-0.59,-24.41,-24.87,0,*53
1507129305.13,9928,13.88,73798.0,-0.59,-24.41,-24.71,0,*55
1507129306.39,9929,13.88,73794.0,-0.59,-24.51,-24.87,0,*5C
1507129307.64,9930,13.81,73786.3,-0.59,-24.21,-24.51,0,*58
1507129308.87,9931,13.88,73788.8,-0.57,-24.25,-24.57,0,*55
1507129310.11,9932,13.81,73782.3,-0.57,-24.41,-24.67,0,*57
1507129311.34,9933,13.81,73786.8,-0.57,-24.57,-24.71,0,*56
1507129312.54,9934,13.81,73780.3,-0.57,-24.51,-24.57,0,*53
1507129313.76,9935,13.88,73776.3,-0.57,-24.41,-24.57,0,*53
1507129314.98,9936,13.81,73788.5,-0.57,-24.97,-25.03,0,*5B
1507129316.22,9937,13.88,73784.5,-0.57,-25.03,-25.03,0,*56
1507129317.47,9938,13.88,73786.5,-0.57,-24.83,-24.87,0,*5D
1507129318.72,9939,13.88,73780.5,-0.57,-24.83,-24.83,0,*58
1507129319.98,9940,13.88,73784.8,-0.57,-24.71,-24.71,0,*56
1507129321.17,9941,13.81,73780.3,-0.57,-24.51,-24.35,0,*55
1507129322.39,9942,13.88,73780.0,-0.55,-24.61,-24.51,0,*55
1507129323.64,9943,13.88,73786.3,-0.55,-24.67,-24.61,0,*51
1507129324.85,9944,13.88,73786.0,-0.55,-24.93,-24.77,0,*5A
1507129326.06,9945,13.81,73788.8,-0.55,-25.13,-24.97,0,*5C
1507129327.28,9946,13.81,73786.3,-0.55,-24.77,-24.51,0,*56
1507129328.53,9947,13.88,73792.0,-0.55,-24.83,-24.61,0,*5F
1507129329.75,9948,13.88,73790.8,-0.55,-24.77,-24.51,0,*58
1507129330.97,9949,13.88,73798.5,-0.57,-24.83,-24.57,0,*56
1507129332.16,9950,13.88,73802.0,-0.53,-24.93,-24.61,0,*5E
1507129333.34,9951,13.88,73800.8,-0.53,-24.93,-24.61,0,*5F
1507129334.58,9952,13.88,73804.3,-0.53,-25.29,-24.83,0,*50
1507129335.83,9953,13.88,73806.0,-0.55,-25.75,-25.19,0,*5C
1507129337.06,9954,13.81,73806.0,-0.55,-25.45,-24.97,0,*5F
1507129338.28,9955,13.88,73806.0,-0.55,-25.49,-25.13,0,*5F
1507129339.5,9956,13.81,73804.8,-0.57,-25.65,-25.03,0,*51
1507129340.72,9957,13.81,73808.0,-0.57,-25.39,-24.87,0,*54
1507129341.97,9958,13.88,73802.8,-0.59,-25.39,-24.87,0,*55
1507129343.22,9959,13.81,73806.8,-0.59,-25.49,-24.71,0,*5A
1507129344.44,9960,13.88,73808.5,-0.57,-25.65,-24.87,0,*59
1507129345.69,9961,13.88,73804.8,-0.57,-25.55,-24.67,0,*55
1507129346.94,9962,13.88,73790.3,-0.57,-25.55,-24.71,0,*51
1507129348.22,9963,13.81,73776.5,-0.59,-25.55,-24.71,0,*5E
1507129349.47,9964,13.88,73786.8,-0.57,-25.55,-24.67,0,*50
1507129350.71,9965,13.81,73794.3,-0.59,-25.65,-24.67,0,*5C
1507129351.98,9966,13.81,73796.3,-0.59,-25.55,-24.67,0,*5C
1507129353.21,9967,13.88,73800.8,-0.59,-25.49,-24.57,0,*53
1507129354.4,9968,13.88,73802.5,-0.57,-25.49,-24.51,0,*54
1507129355.66,9969,13.88,73806.5,-0.59,-25.55,-24.51,0,*56
1507129356.88,9970,13.88,73796.5,-0.59,-25.39,-24.35,0,*56
1507129358.09,9971,13.81,73788.5,-0.57,-25.35,-24.25,0,*54
1507129359.32,9972,13.88,73790.3,-0.57,-25.71,-24.51,0,*54
1507129360.57,9973,13.81,73788.0,-0.59,-25.35,-24.21,0,*5C
1507129361.79,9974,13.88,73784.3,-0.59,-25.49,-24.35,0,*55
1507129363.01,9975,13.81,73784.5,-0.59,-25.65,-24.35,0,*5A
1507129364.25,9976,13.88,73792.8,-0.59,-25.35,-24.11,0,*5A
1507129365.49,9977,13.81,73782.3,-0.59,-25.39,-24.11,0,*57
1507129366.74,9978,13.81,73786.3,-0.57,-25.71,-24.41,0,*5F
1507129367.95,9979,13.81,73784.3,-0.57,-25.81,-24.51,0,*50
1507129369.23,9980,13.88,73794.8,-0.59,-25.81,-24.41,0,*59
1507129370.43,9981,13.81,73782.5,-0.61,-26.03,-24.47,0,*5C
1507129371.64,9982,13.81,73782.8,-0.61,-25.91,-24.41,0,*51
1507129372.86,9983,13.88,73794.0,-0.61,-25.91,-24.41,0,*50
1507129374.08,9984,13.81,73794.3,-0.61,-25.75,-24.31,0,*5A
1507129375.3,9985,13.81,73792.3,-0.61,-25.87,-24.25,0,*53
1507129376.55,9986,13.81,73794.3,-0.61,-25.75,-24.25,0,*5D
1507129377.77,9987,13.81,73788.8,-0.61,-25.87,-24.25,0,*51
1507129378.98,9988,13.81,73790.0,-0.61,-25.87,-24.15,0,*5D
1507129380.17,9989,13.81,73786.5,-0.61,-25.91,-24.31,0,*5D
1507129381.39,9990,13.81,73792.5,-0.61,-25.91,-24.25,0,*50
1507129382.63,9991,13.88,73802.0,-0.63,-25.61,-24.15,0,*5F
1507129383.87,9992,13.81,73786.3,-0.63,-25.87,-24.15,0,*54
1507129385.09,9993,13.81,73784.5,-0.61,-25.91,-24.25,0,*53
1507129386.36,9994,13.81,73784.0,-0.63,-25.75,-23.95,0,*50
1507129387.6,9995,13.88,73782.3,-0.63,-25.87,-23.99,0,*50
1507129388.84,9996,13.81,73786.5,-0.63,-25.91,-24.11,0,*53
1507129390.07,9997,13.88,73800.5,-0.63,-25.91,-24.15,0,*56
1507129391.32,9998,13.81,73794.5,-0.67,-25.91,-24.21,0,*5A
1507129392.56,9999,13.88,73790.0,-0.63,-25.91,-23.95,0,*57
1507129393.8,10000,13.81,73786.8,-0.67,-25.91,-23.95,0,*62
1507129395.05,10001,13.81,73788.8,-0.67,-25.91,-23.85,0,*62
1507129396.3,10002,13.81,73788.5,-0.69,-26.13,-23.99,0,*6B
1507129397.58,10003,13.81,73790.8,-0.67,-25.97,-23.69,0,*64
1507129398.8,10004,13.81,73780.5,-0.67,-25.91,-23.79,0,*64
1507129400.04,10005,13.81,73796.3,-0.67,-25.91,-23.65,0,*68
1507129401.29,10006,13.81,73776.3,-0.67,-25.35,-23.19,0,*6E
1507129402.57,10007,13.81,73772.8,-0.67,-25.29,-23.03,0,*69
1507129403.8,10008,13.88,73782.5,-0.67,-25.19,-22.97,0,*69
1507129405.07,10009,13.81,73796.5,-0.67,-25.81,-23.49,0,*6B
1507129406.27,10010,13.88,73794.8,-0.69,-25.65,-23.39,0,*60
1507129407.52,10011,13.81,73798.0,-0.67,-25.61,-23.33,0,*61
1507129408.77,10012,13.88,73814.8,-0.67,-25.91,-23.49,0,*60
1507129410.02,10013,13.81,73802.5,-0.67,-25.91,-23.49,0,*61
1507129411.27,10014,13.81,73800.3,-0.67,-25.65,-23.23,0,*61
1507129412.53,10015,13.81,73796.3,-0.67,-25.65,-23.19,0,*69
1507129413.81,10016,13.88,73796.3,-0.67,-25.75,-23.19,0,*6B
1507129415.06,10017,13.81,73798.8,-0.67,-25.65,-23.19,0,*6B
1507129416.31,10018,13.81,73790.5,-0.67,-25.91,-23.33,0,*67
1507129417.59,10019,13.88,73794.3,-0.67,-25.81,-23.19,0,*6F
1507129418.87,10020,13.81,73796.8,-0.67,-25.75,-23.19,0,*6E
1507129420.13,10021,13.81,73788.8,-0.69,-25.97,-23.23,0,*64
1507129421.36,10022,13.81,73784.0,-0.67,-25.49,-22.83,0,*61
1507129422.61,10023,13.81,73794.8,-0.67,-25.91,-23.19,0,*67
1507129423.87,10024,13.81,73784.5,-0.69,-25.97,-23.23,0,*61
1507129425.09,10025,13.81,73794.8,-0.69,-25.87,-23.03,0,*63
1507129426.33,10026,13.81,73792.3,-0.69,-25.97,-23.09,0,*6B
1507129427.58,10027,13.81,73788.5,-0.69,-25.81,-23.03,0,*67
1507129428.83,10028,13.81,73788.5,-0.69,-25.71,-22.73,0,*61
1507129430.03,10029,13.81,73800.0,-0.69,-25.65,-22.87,0,*6E
1507129431.26,10030,13.88,73800.0,-0.69,-25.55,-22.57,0,*68
1507129432.48,10031,13.81,73794.0,-0.67,-25.09,-22.27,0,*69
1507129433.72,10032,13.81,73786.5,-0.67,-24.93,-21.97,0,*60
1507129434.94,10033,13.88,73792.8,-0.67,-25.35,-22.41,0,*64
1507129436.16,10034,13.81,73790.3,-0.67,-25.19,-22.37,0,*6C
1507129437.36,10035,13.81,73788.8,-0.69,-25.13,-22.27,0,*68
1507129438.58,10036,13.81,73788.0,-0.67,-25.19,-22.11,0,*6A
1507129439.81,10037,13.81,73784.5,-0.69,-25.35,-22.31,0,*69
1507129441.04,10038,13.81,73786.8,-0.67,-25.65,-22.57,0,*6D
1507129442.32,10039,13.81,73792.3,-0.67,-25.97,-23.03,0,*61
1507129443.57,10040,13.81,73792.3,-0.67,-25.65,-22.73,0,*64
1507129444.8,10041,13.81,73792.8,-0.69,-25.55,-22.57,0,*6E
1507129446.03,10042,13.81,73796.5,-0.69,-25.39,-22.47,0,*66
1507129447.23,10043,13.81,73800.0,-0.69,-25.49,-22.41,0,*66
1507129448.42,10044,13.81,73792.0,-0.69,-25.39,-22.41,0,*66
1507129449.66,10045,13.81,73794.5,-0.67,-25.45,-22.41,0,*62
1507129450.85,10046,13.81,73798.0,-0.69,-25.49,-22.41,0,*63
1507129452.1,10047,13.81,73798.5,-0.67,-25.45,-22.27,0,*60
1507129453.33,10048,13.81,73804.8,-0.69,-25.49,-22.31,0,*6A
1507129454.56,10049,13.81,73800.8,-0.69,-25.49,-22.31,0,*6B
1507129455.79,10050,13.88,73810.0,-0.69,-25.39,-22.17,0,*60
1507129457.05,10051,13.81,73806.0,-0.69,-25.55,-22.31,0,*6F
1507129458.27,10052,13.81,73796.8,-0.71,-25.19,-21.93,0,*66
1507129459.46,10053,13.81,73796.8,-0.69,-25.35,-22.03,0,*6A
1507129460.66,10054,13.81,73804.5,-0.69,-25.19,-21.93,0,*69
1507129461.91,10055,13.81,73796.5,-0.69,-25.03,-21.67,0,*68
1507129463.14,10056,13.81,73806.3,-0.69,-24.97,-21.67,0,*67
1507129464.33,10057,13.81,73802.0,-0.69,-24.97,-21.63,0,*62
1507129465.55,10058,13.81,73794.3,-0.71,-24.97,-21.63,0,*64
1507129466.83,10059,13.81,73780.8,-0.71,-24.87,-21.53,0,*67
1507129468.07,10060,13.81,73782.0,-0.71,-24.87,-21.47,0,*68
1507129469.34,10061,13.81,73780.5,-0.71,-24.71,-21.39,0,*69
1507129470.55,10062,13.81,73788.0,-0.67,-24.93,-21.47,0,*68
1507129471.75,10063,13.81,73792.8,-0.69,-24.97,-21.63,0,*65
1507129472.97,10064,13.81,73798.8,-0.69,-24.87,-21.47,0,*65
1507129474.22,10065,13.81,73808.8,-0.69,-24.87,-21.53,0,*61
1507129475.46,10066,13.81,73796.3,-0.69,-24.57,-21.23,0,*68
1507129476.73,10067,13.81,73786.8,-0.71,-24.11,-20.83,0,*69
1507129477.93,10068,13.81,73780.5,-0.69,-24.35,-21.09,0,*6A
1507129479.17,10069,13.81,73784.8,-0.69,-24.57,-21.23,0,*67
1507129480.42,10070,13.81,73786.0,-0.67,-23.99,-20.69,0,*6B
1507129481.68,10071,13.81,73774.3,-0.67,-23.99,-20.63,0,*60
1507129482.92,10072,13.81,73760.5,-0.67,-24.31,-20.93,0,*69
1507129484.15,10073,13.88,73786.8,-0.67,-24.47,-21.13,0,*60
1507129485.42,10074,13.81,73796.3,-0.63,-24.61,-21.23,0,*64
1507129486.67,10075,13.81,73804.3,-0.67,-24.83,-21.47,0,*6F
1507129487.95,10076,13.81,73810.5,-0.67,-24.67,-21.33,0,*65
1507129489.21,10077,13.81,73804.0,-0.67,-24.47,-20.99,0,*67
1507129490.44,10078,13.81,73798.5,-0.69,-24.35,-20.99,0,*63
1507129491.67,10079,13.81,73792.3,-0.69,-24.35,-20.99,0,*62
1507129492.93,10080,13.81,73794.0,-0.67,-24.05,-20.79,0,*67
1507129494.18,10081,13.81,73792.0,-0.67,-23.99,-20.69,0,*65
1507129495.46,10082,13.81,73786.0,-0.67,-23.99,-20.79,0,*67
1507129496.69,10083,13.81,73796.0,-0.69,-23.99,-20.69,0,*69
1507129497.95,10084,13.81,73796.0,-0.67,-23.85,-20.63,0,*67
1507129499.2,10085,13.81,73788.8,-0.67,-23.85,-20.63,0,*66
1507129500.47,10086,13.81,73802.0,-0.67,-23.79,-20.49,0,*6E
1507129501.72,10087,13.81,73792.5,-0.63,-23.19,-19.99,0,*6A
1507129502.95,10088,13.81,73778.5,-0.61,-23.19,-19.99,0,*67
1507129504.22,10089,13.81,73784.5,-0.63,-23.33,-20.15,0,*62
1507129505.45,10090,13.81,73770.0,-0.61,-23.29,-20.05,0,*62
1507129506.69,10091,13.81,73768.5,-0.61,-23.19,-20.15,0,*61
1507129507.94,10092,13.81,73782.8,-0.61,-23.19,-20.15,0,*62
1507129509.17,10093,13.81,73768.3,-0.61,-23.03,-19.71,0,*60
1507129510.4,10094,13.81,73772.8,-0.61,-22.93,-19.65,0,*6A
1507129511.65,10095,13.81,73758.3,-0.61,-22.47,-19.41,0,*64
1507129512.88,10096,13.81,73768.8,-0.59,-22.41,-19.37,0,*6B
1507129514.08,10097,13.81,73776.3,-0.57,-22.63,-19.47,0,*63
1507129515.28,10098,13.81,73778.5,-0.57,-22.57,-19.47,0,*6B
1507129516.51,10099,13.81,73768.3,-0.55,-22.53,-19.47,0,*6C
1507129517.74,10100,13.81,73774.3,-0.53,-22.53,-19.57,0,*6A
1507129518.97,10101,13.81,73786.0,-0.55,-22.83,-19.75,0,*60
1507129520.19,10102,13.81,73784.5,-0.53,-22.73,-19.71,0,*6E
1507129521.41,10103,13.81,73780.8,-0.53,-22.87,-19.85,0,*6F
1507129522.63,10104,13.81,73758.3,-0.53,-22.73,-19.75,0,*6C
1507129523.85,10105,13.81,73774.3,-0.53,-22.83,-19.85,0,*6D
1507129525.05,10106,13.81,73784.3,-0.53,-22.83,-19.91,0,*6B
1507129526.26,10107,13.81,73790.0,-0.53,-22.83,-19.95,0,*6E
1507129527.48,10108,13.81,73798.8,-0.53,-22.83,-19.85,0,*60
1507129528.73,10109,13.81,73796.0,-0.53,-23.03,-20.35,0,*69
1507129529.99,10110,13.81,73796.5,-0.51,-23.19,-20.43,0,*69
1507129531.25,10111,13.81,73798.0,-0.51,-22.97,-20.35,0,*6E
1507129532.5,10112,13.81,73798.5,-0.53,-23.03,-20.35,0,*63
1507129533.75,10113,13.81,73802.3,-0.51,-23.03,-20.29,0,*6D
1507129534.98,10114,13.81,73800.8,-0.51,-23.13,-20.43,0,*67
1507129536.2,10115,13.81,73796.8,-0.53,-23.09,-20.39,0,*62
1507129537.43,10116,13.81,73796.0,-0.53,-23.09,-20.49,0,*66
1507129538.69,10117,13.81,73794.8,-0.55,-23.03,-20.39,0,*6C
1507129539.94,10118,13.81,73794.5,-0.55,-22.93,-20.35,0,*67
1507129541.18,10119,13.81,73790.0,-0.55,-22.93,-20.39,0,*6A
1507129542.4,10120,13.81,73790.5,-0.53,-22.87,-20.35,0,*6F
1507129543.6,10121,13.81,73776.0,-0.53,-22.87,-20.39,0,*62
1507129544.85,10122,13.81,73776.8,-0.55,-22.87,-20.35,0,*6B
1507129546.07,10123,13.81,73780.3,-0.53,-22.87,-20.35,0,*6C
1507129547.29,10124,13.81,73780.3,-0.53,-22.83,-20.35,0,*6F
1507129548.54,10125,13.81,73778.5,-0.53,-22.73,-20.35,0,*61
1507129549.77,10126,13.81,73788.8,-0.53,-22.67,-20.35,0,*67
1507129550.99,10127,13.81,73784.8,-0.53,-22.67,-20.35,0,*66
1507129552.19,10128,13.81,73790.3,-0.53,-22.67,-20.25,0,*68
1507129553.44,10129,13.81,73790.8,-0.51,-22.53,-20.15,0,*6F
1507129554.67,10130,13.81,73794.5,-0.53,-22.67,-20.35,0,*60
1507129555.88,10131,13.81,73794.5,-0.53,-22.57,-20.39,0,*6E
1507129557.08,10132,13.81,73798.8,-0.53,-22.87,-20.63,0,*6F
1507129558.34,10133,13.81,73802.3,-0.53,-22.73,-20.53,0,*66
1507129559.59,10134,13.81,73790.8,-0.53,-22.73,-20.53,0,*61
1507129560.84,10135,13.81,73786.0,-0.55,-22.83,-20.53,0,*69
1507129562.06,10136,13.81,73782.5,-0.55,-22.83,-20.69,0,*63
1507129563.32,10137,13.81,73784.8,-0.55,-22.73,-20.63,0,*67
1507129564.51,10138,13.81,73788.0,-0.53,-22.67,-20.69,0,*61
1507129565.76,10139,13.81,73784.0,-0.55,-22.67,-20.79,0,*67
1507129567.02,10140,13.81,73786.5,-0.55,-22.53,-20.53,0,*66
1507129568.28,10141,13.81,73794.5,-0.55,-22.21,-20.39,0,*6E
1507129569.51,10142,13.81,73792.8,-0.55,-22.11,-20.39,0,*6E
1507129570.76,10143,13.81,73794.3,-0.55,-22.11,-20.53,0,*63
1507129571.99,10144,13.81,73792.5,-0.53,-22.53,-20.79,0,*6C
1507129573.2,10145,13.81,73798.5,-0.57,-22.57,-20.89,0,*62
1507129574.43,10146,13.81,73794.8,-0.57,-22.31,-20.69,0,*6F
1507129575.67,10147,13.81,73790.8,-0.57,-22.17,-20.59,0,*69
1507129576.87,10148,13.81,73798.0,-0.57,-22.41,-20.69,0,*66
1507129578.11,10149,13.81,73802.0,-0.59,-22.57,-20.89,0,*60
1507129579.31,10150,13.81,73798.5,-0.57,-22.27,-20.73,0,*64
1507129580.55,10151,13.81,73798.3,-0.59,-22.57,-20.93,0,*62
1507129581.81,10152,13.81,73790.3,-0.59,-22.17,-20.69,0,*60
1507129583.04,10153,13.81,73786.3,-0.59,-22.41,-21.09,0,*65
1507129584.26,10154,13.81,73786.5,-0.57,-22.27,-20.83,0,*6F
1507129585.54,10155,13.81,73792.3,-0.59,-22.31,-21.03,0,*6E
1507129586.78,10156,13.81,73790.5,-0.59,-22.11,-20.89,0,*6C
1507129588.04,10157,13.81,73792.0,-0.61,-22.21,-20.99,0,*64
1507129589.26,10158,13.81,73790.8,-0.61,-22.31,-21.13,0,*69
1507129590.49,10159,13.81,73788.0,-0.61,-22.21,-21.13,0,*69
1507129591.73,10160,13.81,73792.0,-0.63,-22.03,-20.79,0,*6C
1507129592.96,10161,13.81,73782.0,-0.61,-22.21,-21.13,0,*62
1507129594.24,10162,13.81,73782.8,-0.63,-22.21,-21.23,0,*60
1507129595.5,10163,13.81,73778.3,-0.63,-22.17,-21.13,0,*67
1507129596.77,10164,13.81,73786.0,-0.63,-21.87,-20.89,0,*68
1507129598.02,10165,13.81,73788.8,-0.67,-21.77,-21.03,0,*61
1507129599.28,10166,13.81,73776.8,-0.67,-21.63,-20.99,0,*65
1507129600.5,10167,13.81,73786.3,-0.63,-21.43,-20.73,0,*66
1507129601.71,10168,13.81,73794.3,-0.61,-21.43,-20.63,0,*6A
1507129602.96,10169,13.81,73794.0,-0.67,-21.33,-20.69,0,*60
1507129604.19,10170,13.81,73800.5,-0.63,-21.39,-20.63,0,*6C
1507129605.42,10171,13.81,73788.8,-0.63,-21.39,-20.73,0,*6C
1507129606.7,10172,13.81,73782.5,-0.67,-20.99,-20.35,0,*62
1507129607.92,10173,13.81,73790.0,-0.63,-20.63,-19.99,0,*6E
1507129609.19,10174,13.81,73778.5,-0.63,-20.35,-19.85,0,*67
1507129610.44,10175,13.81,73764.3,-0.61,-20.35,-19.85,0,*64
1507129611.65,10176,13.81,73764.3,-0.61,-20.35,-19.99,0,*6A
1507129612.91,10177,13.81,73762.0,-0.61,-20.79,-20.49,0,*64
1507129614.11,10178,13.81,73768.5,-0.61,-21.09,-20.63,0,*65
1507129615.39,10179,13.81,73764.8,-0.59,-21.03,-20.83,0,*6B
1507129616.59,10180,13.81,73760.8,-0.61,-21.09,-20.93,0,*6D
1507129617.82,10181,13.81,73770.5,-0.61,-20.99,-20.93,0,*64
1507129619.08,10182,13.81,73772.5,-0.61,-21.23,-21.23,0,*6D
1507129620.28,10183,13.81,73776.0,-0.61,-21.13,-21.13,0,*6C
1507129621.48,10184,13.81,73782.3,-0.61,-21.13,-21.09,0,*60
1507129622.74,10185,13.81,73772.5,-0.61,-21.27,-21.23,0,*6E
1507129623.96,10186,13.81,73784.3,-0.61,-20.89,-20.79,0,*66
1507129625.22,10187,13.81,73792.0,-0.63,-20.93,-20.99,0,*60
1507129626.47,10188,13.81,73786.5,-0.63,-21.09,-21.27,0,*69
1507129627.67,10189,13.81,73790.3,-0.61,-21.09,-21.39,0,*65
1507129628.92,10190,13.81,73780.0,-0.63,-21.43,-21.67,0,*6A
1507129630.14,10191,13.81,73788.8,-0.63,-21.93,-22.37,0,*60
1507129631.4,10192,13.81,73784.0,-0.63,-21.83,-22.07,0,*61
1507129632.67,10193,13.81,73788.3,-0.67,-21.27,-21.57,0,*6C
1507129633.95,10194,13.81,73786.0,-0.63,-20.99,-21.53,0,*6F
1507129635.2,10195,13.81,73788.8,-0.67,-20.99,-21.43,0,*6B
1507129636.42,10196,13.81,73792.3,-0.63,-20.93,-21.43,0,*66
1507129637.68,10197,13.81,73780.3,-0.67,-20.83,-21.39,0,*6F
1507129638.93,10198,13.81,73776.0,-0.67,-20.79,-21.47,0,*6C
1507129640.15,10199,13.81,73790.0,-0.69,-20.99,-21.63,0,*6B
1507129641.43,10200,13.81,73778.3,-0.67,-20.53,-21.27,0,*60
1507129642.68,10201,13.81,73780.3,-0.67,-20.05,-20.79,0,*68
1507129643.91,10202,13.81,73790.3,-0.67,-19.75,-20.63,0,*6D
1507129645.17,10203,13.81,73782.5,-0.67,-19.71,-20.49,0,*60
1507129646.43,10204,13.81,73766.8,-0.63,-19.51,-20.35,0,*6A
1507129647.66,10205,13.81,73764.3,-0.63,-19.71,-20.59,0,*63
1507129648.87,10206,13.81,73760.5,-0.61,-19.71,-20.63,0,*6B
1507129650.14,10207,13.81,73770.0,-0.59,-19.51,-20.53,0,*60
1507129651.4,10208,13.81,73768.5,-0.59,-19.47,-20.53,0,*68
1507129652.66,10209,13.81,73782.8,-0.59,-19.51,-20.53,0,*6E
1507129653.87,10210,13.81,73774.0,-0.57,-19.47,-20.59,0,*65
1507129655.07,10211,13.81,73760.3,-0.57,-19.51,-20.69,0,*60
1507129656.3,10212,13.81,73768.0,-0.57,-19.65,-20.73,0,*6F
1507129657.58,10213,13.81,73774.0,-0.55,-19.61,-20.83,0,*67
1507129658.83,10214,13.81,73770.8,-0.55,-19.85,-21.13,0,*62
1507129660.06,10215,13.81,73770.8,-0.55,-19.95,-21.17,0,*66
1507129661.25,10216,13.81,73770.3,-0.53,-20.09,-21.43,0,*6D
1507129662.48,10217,13.81,73766.0,-0.53,-19.91,-21.27,0,*65
1507129663.71,10218,13.81,73744.3,-0.53,-19.71,-20.99,0,*60
1507129664.97,10219,13.81,73770.8,-0.51,-19.41,-20.93,0,*6A
1507129666.22,10220,13.81,73776.0,-0.51,-19.41,-20.93,0,*60
1507129667.45,10221,13.81,73760.5,-0.49,-19.65,-21.13,0,*67
1507129668.65,10222,13.81,73772.5,-0.49,-19.91,-21.43,0,*6A
1507129669.89,10223,13.81,73772.0,-0.49,-19.99,-21.53,0,*62
1507129671.1,10224,13.81,73774.3,-0.51,-20.05,-21.73,0,*61
1507129672.32,10225,13.81,73778.5,-0.51,-20.05,-21.73,0,*60
1507129673.52,10226,13.81,73778.5,-0.49,-20.05,-21.77,0,*6E
1507129674.72,10227,13.81,73772.3,-0.49,-20.05,-21.93,0,*65
1507129675.92,10228,13.81,73768.0,-0.49,-20.05,-21.77,0,*60
1507129677.12,10229,13.81,73766.5,-0.49,-20.05,-21.93,0,*6B
1507129678.34,10230,13.81,73774.3,-0.51,-20.05,-22.03,0,*60
1507129679.59,10231,13.81,73778.5,-0.49,-20.19,-22.17,0,*60
1507129680.85,10232,13.81,73780.0,-0.49,-20.19,-22.17,0,*63
1507129682.09,10233,13.81,73786.0,-0.49,-20.35,-22.21,0,*69
1507129683.34,10234,13.81,73780.8,-0.51,-20.29,-22.31,0,*6B
1507129684.59,10235,13.81,73778.5,-0.49,-20.19,-22.31,0,*60
1507129685.81,10236,13.81,73782.0,-0.49,-20.35,-22.37,0,*6B
1507129687.04,10237,13.81,73764.8,-0.49,-20.29,-22.47,0,*60
1507129688.26,10238,13.81,73770.8,-0.49,-20.35,-22.53,0,*67
1507129689.5,10239,13.81,73782.0,-0.49,-20.59,-22.77,0,*6A
1507129690.71,10240,13.81,73782.0,-0.49,-20.59,-22.67,0,*65
1507129691.9,10241,13.81,73782.8,-0.49,-20.29,-22.63,0,*67
1507129693.13,10242,13.81,73782.0,-0.49,-20.35,-22.63,0,*69
1507129694.34,10243,13.81,73780.5,-0.49,-20.43,-22.67,0,*6D
1507129695.57,10244,13.81,73786.8,-0.49,-20.49,-22.67,0,*60
1507129696.82,10245,13.81,73792.0,-0.49,-20.49,-22.77,0,*60
1507129698.05,10246,13.81,73788.0,-0.49,-20.49,-22.67,0,*62